Weather Roundup
Issued by NWS

Home | Current Version | Previous Version | Text Only | Print | Product List | Glossary On
Versions: 1 2 3 4 5 6 7 8 9 10 11 12 13 14 15 16 17 18 19 20 21 22 23 24 25 26 27 28 29 30 31 32 33 34 35 36 37 38 39 40 41 42 43 44 45 46 47 48 49 50
000
NZUS93 KARX 200159
HRRWXR

CURRENT HOURLY OBSERVATIONS ACROSS
MUCH OF THE UPPER MISSISSIPPI VALLEY
NATIONAL WEATHER SERVICE LA CROSSE WI
900 PM CDT THU APR 19 2018


...SOUTHEAST MINNESOTA...


CITY           SKY/WX    TMP DP  RH WIND       PRES   REMARKS
ROCHESTER      FAIR      37  23  56 W7        30.44F WCI  32
ROCHESTER/MAYO FAIR      42  22  45 W3        30.45S
WINONA         FAIR      36  28  75 CALM      30.44S
AUSTIN         FAIR      36  25  64 CALM      30.45S
ALBERT LEA     FAIR      34  19  55 CALM      30.46S
DODGE CENTER   FAIR      32  27  80 SW5       30.45S WCI  27
PRESTON        FAIR      36  22  55 NW3       30.45S
OWATONNA       FAIR      34  28  80 SW5       30.46R WCI  30
FARIBAULT      NOT AVBL
$$

...ELSEWHERE IN MINNESOTA...


CITY           SKY/WX    TMP DP  RH WIND       PRES   REMARKS
MINNEAPOLIS    FAIR      45  24  43 W6        30.45S
INTNL FALLS    FAIR      38  18  44 CALM      30.37R
DULUTH         FAIR      47  16  29 W6        30.38R
RED WING       FAIR      37  19  48 W3        30.44F
REDWOOD FALLS  CLEAR     33  27  78 S6        30.44F WCI  28
MANKATO        FAIR      39  21  48 W6        30.46S WCI  35
WORTHINGTON    CLEAR     32  26  78 E3        30.44S
FAIRMONT       CLEAR     31  23  72 CALM      30.46F
$$

...SOUTHWEST WISCONSIN...


CITY           SKY/WX    TMP DP  RH WIND       PRES   REMARKS
LA CROSSE      FAIR      38  25  59 CALM      30.45S
PRAIRIE DU CHI FAIR      39  26  60 CALM      30.45S
BOSCOBEL       FAIR      35  26  69 CALM      30.46R
LONE ROCK      NOT AVBL
PLATTEVILLE    FAIR      43  27  52 N3        30.45S
FORT MC COY    FAIR      35  21  57 CALM      30.45S
CAMP DOUGLAS   FAIR      33  23  65 W3        30.43R
MAUSTON-NEW LI FAIR      37  24  57 W5        30.42S WCI  34
VIROQUA        FAIR      41  23  48 W3        30.44S
WIS DELLS      FAIR      39  22  49 CALM      30.43R
$$

...ELSEWHERE IN WISCONSIN...


CITY           SKY/WX    TMP DP  RH WIND       PRES   REMARKS
MILWAUKEE      FAIR      44  26  49 W5        30.41R
MADISON        FAIR      39  25  57 CALM      30.43R
GREEN BAY      FAIR      37  26  64 SW5       30.38S WCI  33
EAU CLAIRE     FAIR      41  20  43 SW3       30.44R
BLACK RVR FLS  FAIR      31  21  68 CALM      30.43S
MEDFORD        FAIR      40  22  48 W5        30.40R
WAUSAU         FAIR      42  23  46 NW5       30.39R
WIS RAPIDS     FAIR      36  17  46 W3        30.42S
MARSHFIELD     FAIR      40  20  44 W6        30.40S
RICE LAKE      FAIR      41  26  54 CALM      30.44S
$$

...NORTHEAST IOWA...


CITY           SKY/WX    TMP DP  RH WIND       PRES   REMARKS
WATERLOO       FAIR      30  24  78 CALM      30.46S
DUBUQUE        FAIR      35  25  66 NW3       30.44S
DECORAH        FAIR      41  19  42 CALM      30.44S
MASON CITY     CLOUDY    30  22  72 CALM      30.46F
CHARLES CITY   FAIR      36  25  64 NW3       30.46S
OELWEIN        FAIR      37  28  70 N6        30.45F WCI  33
$$

...ELSEWHERE IN IOWA...


CITY           SKY/WX    TMP DP  RH WIND       PRES   REMARKS
DES MOINES     PTCLDY    47  26  44 NE8       30.43S
IOWA CITY      FAIR      45  23  42 N7        30.46R
FORT DODGE     CLEAR     36  27  69 NE5       30.45F WCI  32
MARSHALLTOWN   CLEAR     36  29  75 N9        30.44F WCI  29
CEDAR RAPIDS   FAIR      42  23  46 NE5       30.44R
$$

...NORTHERN ILLINOIS...


CITY           SKY/WX    TMP DP  RH WIND       PRES   REMARKS
CHICAGO-OHARE  FAIR      42  26  53 NW9       30.42R
CHICAGO-MIDWAY FAIR      46  25  43 N6        30.43R
MOLINE         FAIR      47  25  42 NE5       30.43S
ROCKFORD       FAIR      41  21  44 CALM      30.46R
PEORIA         FAIR      48  26  42 N3        30.43R
$$

NOTE: "FAIR" INDICATES FEW OR NO CLOUDS BELOW 12,000 FEET WITH NO
SIGNIFICANT WEATHER AND/OR OBSTRUCTIONS TO VISIBILITY. WIND
SPEEDS ARE IN MILES-PER-HOUR.




USA.gov is the U.S. government's official web portal to all federal, state and local government web resources and services.